Погода в Бад-Райхенхалле

Германия     47°43′15″N   12°52′26″E
темп.,
°C
ветер,
м/с
пор.,
м/с
влажн.,
%
обл.,
%
осадки,
мм/ч
давл.,
гПа
погр.,
м
6 мая, чт
чт623:00+2юз2393100 0.3 101656
02:000ююз239580 0.4 101748
05:000ююз2393100 0.0 101641
08:00+4ю2283100 0.0 1015167
11:00+9св125183 0.0 10121404
14:00+12св2345100 0.0 10091595
17:00+10ссв1161100 0.1 1007591
20:00+7з1190100 0.3 100731
7 мая, пт
пт723:00+6ю1298100 2.7 100948
02:00+6ю2396100 5.6 1009107
05:00+5ююз2397100 2.2 1009176
08:00+6з31291100 3.3 10111578
11:00+3зсз1698100 3.1 1015689
14:00+6з2878100 3.5 10151186
17:00+5зсз258298 0.5 1017962
20:00+4зюз259667 1.5 1020444
8 мая, сб
сб823:00+2юз1398100 0.4 1022344
02:00+3ю1199100 1.3 1023109
05:00+2ююз239533 0.0 1023149
08:00+3ю22865 0.0 1023224
11:00+12св0343100 0.0 10191487
14:00+15с24345 0.0 10172120
17:00+14ссв234174 0.0 10161302
20:00+8вюв117799 0.0 101710
9 мая, вс
вс923:00+6ююз327853 0.0 101835
02:00+6ю337431 0.0 101748
05:00+6ю34695 0.0 101651
08:00+12ю23565 0.0 1013111
11:00+21вюв12335 0.0 1011896
14:00+24в123130 0.0 10081675
17:00+24вюв233628 0.0 10061497
20:00+15ююв337398 0.0 100847
10 мая, пн
пн1023:00+10ю458012 0.0 100982
02:00+8ю457919 0.0 101082
05:00+7ююз347611 0.0 101061
08:00+14ююз22560 0.0 1010139
11:00+20всв23390 0.0 1008926
14:00+23св34385 0.0 10061207
17:00+23св23435 0.0 1005982
20:00+18ююв3273100 0.0 100436